Quick links : Home Page : Contact Us : Index : Site Map : Search Site : Ephemerides


139P/Väisälä-Oterma

Orbital Elements

The following orbital elements are taken from MPC 60666:
139P/Väisälä-Oterma
Epoch 2008 Apr. 4.0 TT = JDT 2454560.5
T 2008 Apr. 19.3482 TT                                  MPC
q   3.402793             (2000.0)            P               Q
n   0.1027014      Peri.  165.5222      +0.6692786      -0.7421369
a   4.515979       Node   242.4522      +0.6775936      +0.6295357
e   0.246499       Incl.    2.3297      +0.3048495      +0.2300381
P   9.60
From 143 observations 1939-2007, mean residual 0".7.
Elements are also available for the current standard epoch:
139P/Väisälä-Oterma
Epoch 2008 Nov. 30.0 TT = JDT 2454800.5
T 2008 Apr. 19.3546 TT                                  MPC
q   3.402754             (2000.0)            P               Q
n   0.1026359      Peri.  165.5216      +0.6693003      -0.7421176
a   4.517898       Node   242.4512      +0.6775760      +0.6295534
e   0.246828       Incl.    2.3294      +0.3048407      +0.2300521
P   9.60
An explanation of the orbital elements is available.

These orbital elements are also available in forms suitable for loading into a number of popular planetarium-type software programs.


Ephemeris

The following ephemeris is at intervals of five days. A daily ephemeris covering the same time interval is also available.

Personalized ephemerides for this (and other) objects may be generated using the Minor Planet & Comet Ephemeris Service.

Recent magnitude estimates for this comet (as reported to the ICQ) may be available.

Date    TT    R. A. (2000) Decl.     Delta      r     Elong.  Phase   m1    m2

WARNING!

This comet gets close to the sun during the period covered in the ephemeris below. Observers are warned to be wary of observing comets near the sun. NEVER point any kind of optical instrument at the sun--instant blindness will be the probable result.

2008 08 22 05 37.90 +23 04.5 3.768 3.451 64.2 15.3 17.8 19.9 2008 08 27 05 43.37 +23 04.9 3.707 3.455 67.8 15.7 17.7 19.9 2008 09 01 05 48.57 +23 04.3 3.645 3.459 71.4 16.1 17.7 19.9 2008 09 06 05 53.48 +23 03.0 3.581 3.463 75.2 16.3 17.7 19.8 2008 09 11 05 58.09 +23 01.1 3.516 3.467 79.0 16.6 17.6 19.8 2008 09 16 06 02.37 +22 58.5 3.451 3.472 82.8 16.7 17.6 19.8 2008 09 21 06 06.29 +22 55.4 3.384 3.476 86.8 16.8 17.6 19.7 2008 09 26 06 09.83 +22 52.0 3.318 3.481 90.9 16.7 17.5 19.7 2008 10 01 06 12.96 +22 48.3 3.251 3.486 95.1 16.6 17.5 19.7 2008 10 06 06 15.65 +22 44.4 3.186 3.491 99.4 16.4 17.4 19.6 2008 10 11 06 17.89 +22 40.5 3.121 3.496 103.8 16.1 17.4 19.6 2008 10 16 06 19.65 +22 36.5 3.057 3.501 108.3 15.7 17.4 19.5 2008 10 21 06 20.92 +22 32.6 2.996 3.506 113.0 15.1 17.3 19.4 2008 10 26 06 21.67 +22 28.9 2.936 3.512 117.8 14.5 17.3 19.4 2008 10 31 06 21.89 +22 25.4 2.880 3.518 122.8 13.7 17.3 19.3 2008 11 05 06 21.57 +22 22.0 2.827 3.523 127.8 12.8 17.2 19.2 2008 11 10 06 20.73 +22 19.0 2.778 3.529 133.0 11.8 17.2 19.2 2008 11 15 06 19.38 +22 16.1 2.734 3.535 138.4 10.7 17.2 19.1 2008 11 20 06 17.54 +22 13.5 2.695 3.541 143.8 9.5 17.1 19.0 2008 11 25 06 15.23 +22 10.9 2.662 3.547 149.4 8.1 17.1 18.9 2008 11 30 06 12.53 +22 08.5 2.635 3.554 155.1 6.7 17.1 18.9 2008 12 05 06 09.47 +22 06.2 2.615 3.560 160.9 5.2 17.1 18.8 2008 12 10 06 06.15 +22 03.9 2.601 3.567 166.7 3.6 17.1 18.7 2008 12 15 06 02.65 +22 01.5 2.595 3.573 172.5 2.1 17.1 18.6 2008 12 20 05 59.06 +21 59.0 2.597 3.580 178.0 0.6 17.1 18.4 2008 12 25 05 55.45 +21 56.6 2.606 3.587 175.3 1.3 17.1 18.5 2008 12 30 05 51.94 +21 54.1 2.623 3.594 169.5 2.9 17.1 18.7 2009 01 04 05 48.62 +21 51.7 2.647 3.601 163.7 4.4 17.2 18.8 2009 01 09 05 45.56 +21 49.5 2.678 3.608 157.9 5.9 17.2 18.9 2009 01 14 05 42.83 +21 47.4 2.717 3.616 152.2 7.3 17.3 19.0 2009 01 19 05 40.50 +21 45.6 2.761 3.623 146.5 8.6 17.3 19.1 2009 01 24 05 38.61 +21 44.1 2.812 3.630 141.0 9.8 17.3 19.2 2009 01 29 05 37.19 +21 43.1 2.868 3.638 135.6 10.9 17.4 19.3 2009 02 03 05 36.27 +21 42.4 2.930 3.646 130.3 11.9 17.5 19.4 2009 02 08 05 35.86 +21 42.3 2.995 3.653 125.1 12.8 17.5 19.4 2009 02 13 05 35.96 +21 42.5 3.065 3.661 120.1 13.5 17.6 19.5 2009 02 18 05 36.55 +21 43.1 3.138 3.669 115.2 14.1 17.6 19.6 2009 02 23 05 37.63 +21 44.1 3.213 3.677 110.4 14.6 17.7 19.7 2009 02 28 05 39.18 +21 45.4 3.291 3.685 105.8 15.0 17.8 19.8 2009 03 05 05 41.19 +21 46.8 3.370 3.693 101.2 15.3 17.8 19.8 2009 03 10 05 43.61 +21 48.3 3.451 3.702 96.8 15.5 17.9 19.9 2009 03 15 05 46.44 +21 49.9 3.532 3.710 92.4 15.5 17.9 19.9 2009 03 20 05 49.63 +21 51.3 3.614 3.719 88.2 15.5 18.0 20.0 2009 03 25 05 53.18 +21 52.5 3.696 3.727 84.1 15.4 18.1 20.0 2009 03 30 05 57.05 +21 53.5 3.777 3.736 80.0 15.3 18.1 20.1 2009 04 04 06 01.22 +21 54.0 3.857 3.744 76.1 15.0 18.2 20.1 2009 04 09 06 05.66 +21 54.1 3.937 3.753 72.2 14.7 18.2 20.2 2009 04 14 06 10.34 +21 53.6 4.014 3.762 68.4 14.3 18.3 20.2 2009 04 19 06 15.26 +21 52.4 4.091 3.771 64.6 13.9 18.3 20.2 2009 04 24 06 20.38 +21 50.5 4.165 3.780 60.9 13.4 18.4 20.3 2009 04 29 06 25.69 +21 47.8 4.237 3.789 57.3 12.9 18.4 20.3 2009 05 04 06 31.16 +21 44.3 4.306 3.798 53.7 12.4 18.5 20.3 2009 05 09 06 36.78 +21 39.8 4.373 3.807 50.2 11.8 18.5 20.3 2009 05 14 06 42.53 +21 34.4 4.438 3.816 46.7 11.1 18.6 20.3 2009 05 19 06 48.39 +21 28.0 4.499 3.825 43.2 10.4 18.6 20.3 2009 05 24 06 54.36 +21 20.7 4.557 3.834 39.8 9.7 18.6 20.3 2009 05 29 07 00.41 +21 12.2 4.612 3.844 36.4 9.0 18.7 20.3 2009 06 03 07 06.52 +21 02.8 4.663 3.853 33.1 8.3 18.7 20.3 2009 06 08 07 12.69 +20 52.3 4.711 3.862 29.8 7.5 18.7 20.3 2009 06 13 07 18.91 +20 40.7 4.755 3.872 26.5 6.7 18.8 20.3 2009 06 18 07 25.16 +20 28.1 4.795 3.881 23.2 5.9 18.8 20.3 2009 06 23 07 31.42 +20 14.4 4.831 3.891 19.9 5.1 18.8 20.3 2009 06 28 07 37.70 +19 59.7 4.864 3.901 16.6 4.3 18.8 20.3 2009 07 03 07 43.98 +19 44.1 4.892 3.910 13.4 3.4 18.9 20.2 2009 07 08 07 50.24 +19 27.4 4.917 3.920 10.1 2.6 18.9 20.2 2009 07 13 07 56.49 +19 09.9 4.937 3.930 6.9 1.8 18.9 20.2 2009 07 18 08 02.70 +18 51.4 4.953 3.940 3.8 1.0 18.9 20.1 2009 07 23 08 08.87 +18 32.1 4.965 3.949 1.6 0.4 18.9 20.0 2009 07 28 08 15.00 +18 12.0 4.972 3.959 3.5 0.9 19.0 20.1 2009 08 02 08 21.07 +17 51.1 4.976 3.969 6.6 1.7 19.0 20.2 2009 08 07 08 27.07 +17 29.5 4.975 3.979 9.8 2.5 19.0 20.3 2009 08 12 08 33.00 +17 07.3 4.969 3.989 13.1 3.3 19.0 20.3 2009 08 17 08 38.84 +16 44.6 4.960 3.999 16.4 4.1 19.0 20.4 2009 08 22 08 44.60 +16 21.3 4.946 4.009 19.8 4.9 19.0 20.4 2009 08 27 08 50.25 +15 57.6 4.928 4.019 23.2 5.7 19.0 20.4 2009 09 01 08 55.80 +15 33.6 4.906 4.029 26.6 6.4 19.0 20.5 2009 09 06 09 01.22 +15 09.4 4.879 4.039 30.1 7.2 19.0 20.5 2009 09 11 09 06.51 +14 44.9 4.849 4.049 33.6 7.9 19.0 20.5 2009 09 16 09 11.67 +14 20.4 4.815 4.059 37.2 8.6 19.0 20.5 2009 09 21 09 16.68 +13 55.9 4.777 4.070 40.8 9.3 19.0 20.6 2009 09 26 09 21.53 +13 31.5 4.735 4.080 44.4 9.9 19.0 20.6

Back to Observable Comets

MPC CBAT ICQ

Valid HTML 4.01!